Warning: Javascript must be enabled to use all the features on this page!


Page Loading - Please Wait...

Click to hideNews Bulletins

Peak Streamflow for the Nation

USGS 06893000 Missouri River at Kansas City, MO

Jackson County, Missouri
Hydrologic Unit Code 10300101
Latitude  39°06'42.2", Longitude  94°35'17.3" NAD83
Drainage area 484,100  square miles
Gage datum 706.68 feet above NAVD88
Output formats
Table
Graph
Tab-separated file
peakfq (watstore) format
Reselect output format
Water
Year
Date Gage
Height
(feet)
Stream-
flow
(cfs)
1844 1844-06-16 48.00 625,0007
1903 1903-06-02 34.95 548,0007
1929 1929-06-05 23.40 254,000
1930 1930-05-09 16.70 149,000
1931 1931-06-24 12.00 64,000
1932 1932-06-21 20.90 178,000
1933 1933-05-31 14.70 109,000
1934 1934-03-07 13.45 87,100
1935 1935-06-06 23.80 230,000
1936 1936-03-12 16.30 117,000
1937 1937-06-30 15.55 102,0005
1938 1938-07-19 19.30 137,0005
1939 1939-04-10 17.40 135,0005
1940 1940-06-21 13.25 68,1005
1941 1941-06-13 24.66 215,0005
1942 1942-06-22 24.25 206,0005
1943 1943-06-18 29.10 366,0005
1944 1944-04-24 27.67 311,0005
1945 1945-06-18 25.30 242,0005
1946 1946-06-20 15.75 123,0005
1947 1947-06-27 25.105 261,0005
1948 1948-03-21 21.25 208,0005
1949 1949-03-08 20.40 195,0005
1950 1950-07-21 20.70 198,0005
1951 1951-07-14 36.20 573,0005
1952 1952-04-24 30.63 400,0005
1953 1953-05-08 16.405 128,0005
1954 1954-06-23 16.03 122,0005
1955 1955-06-25 15.15 111,0005
1956 1956-07-04 11.55 71,3005
1957 1957-06-19 17.05 143,0005
1958 1958-07-12 20.80 193,0005
1959 1959-05-31 16.74 155,0005
1960 1960-04-04 22.95 251,0005
1961 1961-09-14 18.35 178,0005
1962 1962-05-30 18.30 182,0005
1963 1963-06-26 12.38 96,6005
1964 1964-06-24 17.77 158,0005
1965 1965-07-21 22.80 225,0005
1966 1966-06-13 14.592,5 114,0005
1967 1967-06-22 25.26 255,0005
1968 1968-08-11 15.35 120,0005
1969 1969-04-28 19.20 183,0005
1970 1970-06-05 15.40 134,0005
1971 1971-02-23 14.28 126,0005
1972 1972-09-14 15.60 122,0005
1973 1973-09-28 24.86 252,0005
1974 1973-10-13 28.86 313,0005
1975 1975-06-27   108,0001,5
1976 1976-04-26 13.59 120,0005
1977 1977-09-13 22.85 206,0005
1978 1978-03-25 20.08 192,0005
1979 1979-03-04 23.462,5 220,0005
1980 1980-03-31 16.51 169,0005
1981 1981-07-28 14.82 131,0005
1982 1982-06-10 21.96 201,0005
1983 1983-04-02 20.59 193,0005
1984 1984-06-11   239,0001,5
1985 1985-09-30 13.34 125,0005
1986 1985-10-11 21.11 212,0005
1987 1987-05-29 22.95 224,0005
1988 1988-04-04 6.94 68,3005
1989 1989-09-10 20.88 200,0005
1990 1990-06-21 26.43 133,0005
1991 1991-06-16 24.37 113,0005
1992 1992-07-31 29.49 167,0005
1993 1993-07-27 48.87 541,0005
1994 1994-03-08 20.305 103,0005
1995 1995-05-19 33.77 220,0005
1996 1996-05-28 29.84 168,0005
1997 1997-04-12 29.56 190,0005
1998 1998-06-17 28.08 160,0005
1999 1999-06-29 33.40 211,0005
2000 2000-06-27 19.70 83,5005
2001 2001-06-21 27.96 180,0005
2002 2002-05-13 17.66 73,9005
2003 2003-06-14 17.47 81,4005
2004 2004-05-31 21.94 119,0005
2005 2005-06-12 23.992 140,0005
2006 2005-10-03 20.27 103,0005
2007 2007-05-08 35.47 286,0005
2008 2008-06-13 29.02 201,0005
2009 2009-04-28 25.11 169,0005
2010 2010-06-18 29.95 212,0005
2011 2011-07-10 32.60 245,0005
2012 2012-04-16 20.96 115,0005
2013 2013-06-01 26.60 172,0005
2014 2014-06-06 22.612 140,0005
2015 2015-06-06 31.07 224,0005
2016 2016-05-28 32.16 240,0005
2017 2017-05-22 25.09 164,0005
2018 2018-07-02   139,0005
2019 2019-06-02 36.73 308,0005
2020 2019-10-04 28.01 190,0005
?
  Peak Gage-Height Qualification Codes.
?
  Peak Streamflow Qualification Codes.